User: anonymous   Login
Location: Unspecified
(0.0000°N, 0.0000°E)
Time: 06:18:57
(UTC+00:00)
Language:

POPSAT HIP 1 - Orbit

View from above orbital plane
View from above orbital plane
View from above satellite
View from above satellite

Ground track
Ground track

The orbit data is extracted from the following two-line orbital elements,

1 40028U 14033U   18116.72202129  .00000202  00000-0  27743-4 0  9998
2 40028  97.9104  32.5964 0014187 359.5221   0.6001 14.88541287209111
Epoch (UTC): 26 April 2018 17:19:42
Eccentricity: 0.0014187
inclination: 97.9104°
perigee height: 592 km
apogee height: 612 km
right ascension of ascending node: 32.5964°
argument of perigee: 359.5221°
revolutions per day: 14.88541287
mean anomaly at epoch: 0.6001°
orbit number at epoch: 20911

The dashed part of the orbit path shows where the satellite is in the earth's shadow,  

DLR